Total_Precipitation_Accumulation
0.03 0.04 0.11 0.08 0.04 0.06 0.08 0.09 0.08 0.08 0.07 0.05 0.06 0.05 0.03 0.03 0.02 0.02 0.03 0.03 0.04 0.06 0.06 0.08 0.10 0.11 0.11 0.10 0.08 0.07 0.06 0.06 0.09 0.13 0.17 0.18 0.20 0.31 0.49 0.56 0.65 0.50 0.36
0.02 0.03 0.08 0.06 0.05 0.07 0.09 0.09 0.10 0.11 0.09 0.07 0.06 0.05 0.05 0.04 0.03 0.03 0.04 0.04 0.04 0.06 0.05 0.06 0.07 0.07 0.07 0.06 0.05 0.04 0.05 0.07 0.11 0.17 0.22 0.21 0.24 0.31 0.42 0.49 0.68 0.43 0.30
0.03 0.03 0.05 0.07 0.07 0.08 0.09 0.10 0.11 0.12 0.11 0.09 0.08 0.07 0.07 0.05 0.04 0.04 0.04 0.04 0.04 0.04 0.04 0.04 0.05 0.05 0.05 0.04 0.04 0.03 0.05 0.10 0.19 0.29 0.46 0.38 0.22 0.33 0.40 0.46 0.47 0.36 0.29
0.06 0.03 0.03 0.06 0.08 0.07 0.08 0.10 0.11 0.11 0.10 0.10 0.12 0.11 0.10 0.05 0.05 0.04 0.04 0.04 0.05 0.04 0.03 0.03 0.03 0.03 0.03 0.03 0.04 0.04 0.07 0.12 0.24 0.49 0.79 0.46 0.24 0.26 0.33 0.35 0.33 0.33 0.27
0.06 0.05 0.05 0.06 0.07 0.08 0.09 0.11 0.13 0.12 0.11 0.11 0.16 0.16 0.13 0.08 0.08 0.07 0.05 0.04 0.05 0.05 0.03 0.03 0.03 0.03 0.02 0.03 0.04 0.05 0.09 0.13 0.24 0.48 0.51 0.48 0.48 0.28 0.27 0.32 0.31 0.31 0.24
0.08 0.06 0.08 0.09 0.09 0.09 0.10 0.11 0.15 0.17 0.14 0.14 0.16 0.15 0.14 0.11 0.13 0.11 0.06 0.05 0.06 0.06 0.05 0.04 0.03 0.03 0.03 0.03 0.04 0.06 0.09 0.16 0.31 0.34 0.32 0.32 0.40 0.33 0.29 0.41 0.46 0.42 0.31
0.10 0.07 0.09 0.11 0.11 0.09 0.09 0.10 0.12 0.15 0.16 0.18 0.18 0.14 0.11 0.08 0.08 0.08 0.07 0.06 0.06 0.06 0.06 0.05 0.04 0.04 0.05 0.05 0.05 0.06 0.11 0.20 0.30 0.26 0.27 0.37 0.42 0.30 0.38 0.61 0.74 0.66 0.51
0.14 0.11 0.13 0.15 0.14 0.13 0.11 0.11 0.11 0.11 0.12 0.12 0.13 0.11 0.08 0.07 0.10 0.11 0.10 0.07 0.07 0.07 0.07 0.07 0.06 0.07 0.07 0.06 0.07 0.08 0.12 0.16 0.16 0.19 0.24 0.35 0.29 0.26 0.50 0.73 0.88 0.86 0.77
0.17 0.14 0.15 0.16 0.15 0.16 0.18 0.15 0.14 0.14 0.14 0.16 0.16 0.14 0.12 0.11 0.11 0.13 0.15 0.14 0.14 0.14 0.14 0.12 0.10 0.09 0.10 0.09 0.08 0.09 0.12 0.16 0.21 0.24 0.28 0.35 0.28 0.43 0.81 0.94 0.93 0.96 0.93
0.29 0.25 0.20 0.19 0.20 0.17 0.16 0.18 0.18 0.18 0.18 0.17 0.17 0.15 0.15 0.15 0.16 0.19 0.19 0.20 0.24 0.27 0.27 0.21 0.19 0.17 0.16 0.14 0.12 0.13 0.14 0.17 0.19 0.24 0.34 0.31 0.33 0.60 0.98 1.12 1.13 1.09 1.03
0.39 0.34 0.31 0.25 0.25 0.24 0.20 0.19 0.24 0.26 0.25 0.23 0.26 0.25 0.25 0.30 0.37 0.42 0.41 0.47 0.46 0.49 0.50 0.45 0.42 0.40 0.36 0.25 0.27 0.31 0.26 0.21 0.22 0.27 0.31 0.29 0.42 0.69 1.01 1.16 1.19 1.19 1.09
0.50 0.46 0.44 0.41 0.34 0.32 0.32 0.39 0.46 0.42 0.43 0.41 0.54 0.59 0.62 0.75 0.73 0.53 0.60 0.83 0.95 1.03 0.99 0.95 0.92 0.77 0.66 0.58 0.88 1.03 0.39 0.30 0.29 0.33 0.40 0.46 0.67 0.94 1.24 1.21 1.15 1.16 1.08
0.63 0.57 0.56 0.55 0.53 0.51 0.61 0.54 0.59 0.69 0.78 0.76 0.80 0.86 0.93 0.95 0.81 0.70 0.80 1.04 1.30 1.39 1.29 1.51 1.54 1.15 1.17 1.29 1.25 1.14 0.67 0.70 0.65 0.64 0.67 0.83 1.04 1.33 1.74 1.58 1.30 1.16 1.08
0.82 0.72 0.85 0.72 0.75 0.90 0.92 0.70 0.68 0.75 0.83 0.91 1.09 1.11 1.18 1.30 1.23 1.17 1.20 1.26 1.46 1.62 1.81 1.87 1.95 1.79 1.72 1.65 1.58 1.38 1.16 1.17 1.09 1.31 1.35 1.24 1.27 1.47 1.95 1.94 1.56 1.31 1.14
1.23 1.09 1.02 1.02 1.09 1.20 1.09 1.00 0.92 1.01 1.05 1.09 1.16 1.28 1.31 1.52 1.62 1.61 1.52 1.48 1.49 1.63 1.79 1.90 1.96 2.26 2.36 2.03 1.66 1.51 1.47 1.52 1.40 1.49 1.48 1.41 1.31 1.38 1.69 1.94 1.84 1.64 1.38
1.57 1.55 1.36 1.27 1.39 1.49 1.50 1.52 1.50 1.33 1.34 1.34 1.30 1.30 1.38 1.57 1.74 1.82 1.73 1.69 1.58 1.61 1.76 1.93 2.10 2.50 2.50 2.32 1.86 1.66 1.60 1.55 1.42 1.39 1.49 1.68 1.48 1.33 1.39 1.61 1.82 1.81 1.68
1.81 1.81 1.74 1.74 1.92 1.99 1.97 1.94 1.85 1.70 1.62 1.58 1.58 1.57 1.55 1.60 1.71 1.70 1.56 1.52 1.58 1.72 1.85 1.89 2.08 2.37 2.07 2.04 1.80 1.72 1.54 1.35 1.22 1.20 1.38 1.54 1.42 1.34 1.40 1.48 1.59 1.65 1.72
1.97 2.08 2.24 2.27 2.29 2.27 2.30 2.31 2.20 2.05 1.91 1.77 1.71 1.74 1.63 1.57 1.59 1.69 1.53 1.45 1.77 1.90 1.96 2.09 2.22 2.22 2.11 2.06 1.86 1.62 1.45 1.35 1.10 1.03 1.05 1.12 1.22 1.08 1.28 1.44 1.45 1.48 1.62
2.41 2.62 2.86 2.87 2.75 2.59 2.56 2.52 2.44 2.28 2.05 1.85 1.71 1.67 1.55 1.54 1.63 1.85 1.77 1.82 2.08 2.14 2.13 2.05 2.28 2.26 2.12 2.07 1.89 1.60 1.29 1.16 1.01 0.89 0.82 0.77 0.86 0.92 0.99 1.12 1.23 1.30 1.60
2.73 2.98 2.98 2.99 3.19 3.07 2.90 2.70 2.45 2.07 1.82 1.77 1.74 1.59 1.57 1.63 1.76 2.01 1.85 1.86 2.04 2.13 2.09 2.03 1.99 2.05 1.87 1.86 1.77 1.47 1.15 0.88 0.82 0.71 0.60 0.59 0.62 0.62 0.73 0.91 1.12 0.99 1.25
2.59 2.82 3.05 3.21 3.27 3.09 2.81 2.53 2.30 2.10 1.97 1.78 1.69 1.61 1.57 1.56 1.63 1.88 1.78 1.88 1.92 1.88 1.86 1.91 1.90 1.76 1.49 1.71 1.74 1.32 0.92 0.73 0.69 0.51 0.49 0.50 0.48 0.51 0.65 0.84 1.02 1.02 0.96
2.32 2.65 2.89 3.13 3.16 2.91 2.58 2.37 2.25 2.16 1.86 1.63 1.62 1.59 1.60 1.68 1.67 1.74 1.77 1.76 1.79 1.79 1.69 1.66 1.74 1.57 1.32 1.50 1.58 1.49 0.96 0.74 0.61 0.47 0.53 0.59 0.61 0.67 0.69 0.75 0.90 1.02 1.03
1.96 2.16 2.34 2.44 2.38 2.21 2.15 2.14 2.12 2.09 1.83 1.76 1.83 1.86 1.84 1.86 1.83 1.82 1.75 1.63 1.51 1.46 1.39 1.41 1.50 1.48 1.33 1.33 1.52 1.68 1.30 0.92 0.82 0.64 0.64 0.65 0.74 0.81 0.78 0.81 0.85 0.98 1.07
1.77 1.96 2.13 2.07 1.89 1.73 1.76 1.90 1.96 1.90 1.86 2.01 2.22 2.12 1.89 1.74 1.61 1.45 1.32 1.30 1.27 1.25 1.15 1.10 1.20 1.24 1.17 1.11 1.24 1.40 1.47 1.43 1.30 0.85 0.61 0.58 0.70 0.80 0.87 0.81 0.75 0.84 1.00
1.45 1.60 1.75 1.82 1.71 1.63 1.61 1.67 1.78 1.78 1.76 1.76 1.75 1.71 1.58 1.41 1.22 1.05 0.98 0.98 0.97 0.96 0.91 0.87 0.89 0.91 0.95 0.95 1.08 1.24 1.34 1.40 1.39 1.25 0.88 0.82 0.83 0.77 0.80 0.81 0.83 0.84 0.88
1.15 1.17 1.17 1.28 1.33 1.35 1.37 1.40 1.43 1.41 1.34 1.26 1.18 1.15 1.07 0.98 0.82 0.70 0.66 0.70 0.75 0.81 0.80 0.77 0.79 0.78 0.84 0.95 0.98 1.09 1.22 1.22 1.22 1.30 1.09 0.98 0.92 0.82 0.82 0.86 0.86 0.93 0.92